STARLINK-35618

Last updated on Fri Dec 12 2025 00:02:05 GMT+0000 (Coordinated Universal Time)

1 66423U 25259B 25345.25658229 .00077058 00000+0 18298-2 0 9998 2 66423 42.9997 56.6302 0000760 289.5736 70.5038 15.40759138 5931
UTC large
Height (km)
Speed (km/s)
/
Latitude / Longitude
Inclination (degrees)
Orbital Period (minutes)
Azimuth
Elevation
Range (km)
Doppler Factor

Next 0 passes for location: London (51.5072 / 0.1276)

Sorry there are no passes over London.